Location: La Trinit�
(48.1620°N, 3.4512°W)
Time: 16:47:24
(UTC+00:00)

Meteor 1-11 Rocket - Pass Details

Date: 08 May 2021
Orbit: 831 x 916 km, 81.2° (Epoch: 21 June)

Event Time Altitude Azimuth Distance (km) Brightness Sun altitude
Rises 22:34:36 0° 346° (NNW) 3,565 8.4 -21.1°
Reaches altitude 10° 22:37:05 10° 345° (NNW) 2,620 7.4 -21.3°
Maximum altitude 22:43:03 71° 262° (W) 964 3.9 -21.7°
Enters shadow 22:45:20 39° 190° (S) 1,341 4.3 -21.8°
